AXB765 VOMM-VOBL

Flight info

Callsign AXB765
Flight time N/A
Altitude 26000
Route KKP DCT BUTLA DCT XIVIL XIVIL7E
Aircraft B38M/M-SDE1FGHILORVWXY/HB1

Departure

Time 2026-04-20 15:04
Airport Chennai International Airport (VOMM)

Arrival

Time N/A
Airport Kempegowda International Airport Bengaluru (VOBL)
Time Latitude Longitude Altitude Speed Heading
2026-04-20 14:42 12.98422 80.16492 58 ft 0 kts 160°
2026-04-20 14:53 12.98430 80.16489 50 ft 3 kts 160°
2026-04-20 14:53 12.98450 80.16481 49 ft 3 kts 160°
2026-04-20 14:53 12.98469 80.16474 52 ft 3 kts 165°
2026-04-20 14:53 12.98486 80.16477 52 ft 2 kts 234°
2026-04-20 14:54 12.98491 80.16496 51 ft 3 kts 252°
2026-04-20 14:54 12.98492 80.16497 51 ft 0 kts 250°
2026-04-20 14:58 12.98488 80.16488 53 ft 3 kts 250°
2026-04-20 14:59 12.98479 80.16461 52 ft 5 kts 250°
2026-04-20 14:59 12.98465 80.16419 55 ft 8 kts 250°
2026-04-20 14:59 12.98443 80.16361 55 ft 10 kts 247°
2026-04-20 14:59 12.98415 80.16288 53 ft 12 kts 249°
2026-04-20 15:00 12.98383 80.16199 54 ft 14 kts 250°
2026-04-20 15:00 12.98348 80.16096 56 ft 16 kts 251°
2026-04-20 15:00 12.98302 80.15980 54 ft 19 kts 246°
2026-04-20 15:00 12.98307 80.15848 55 ft 20 kts 288°
2026-04-20 15:01 12.98348 80.15703 55 ft 22 kts 285°
2026-04-20 15:01 12.98390 80.15545 53 ft 24 kts 287°
2026-04-20 15:01 12.98433 80.15453 55 ft 16 kts 328°
2026-04-20 15:01 12.98495 80.15508 56 ft 0 kts 70°
2026-04-20 15:02 12.98498 80.15514 57 ft 4 kts 71°
2026-04-20 15:02 12.98521 80.15576 54 ft 0 kts 69°
2026-04-20 15:02 12.98522 80.15579 55 ft 2 kts 68°
2026-04-20 15:03 12.98535 80.15614 55 ft 15 kts 69°
2026-04-20 15:03 12.98606 80.15806 52 ft 59 kts 69°
2026-04-20 15:03 12.98863 80.16501 56 ft 144 kts 70°
2026-04-20 15:03 12.99283 80.17644 366 ft 187 kts 69°
2026-04-20 15:04 12.99780 80.18922 1079 ft 192 kts 76°
2026-04-20 15:04 12.99625 80.20620 1965 ft 184 kts 120°
2026-04-20 15:04 12.99062 80.21295 2219 ft 197 kts 142°
2026-04-20 15:04 12.97712 80.21801 2461 ft 225 kts 178°
2026-04-20 15:05 12.96167 80.21247 2835 ft 252 kts 216°
2026-04-20 15:05 12.95160 80.19713 3275 ft 275 kts 251°
2026-04-20 15:05 12.95201 80.17759 4016 ft 281 kts 287°
2026-04-20 15:05 12.96064 80.15932 4747 ft 285 kts 295°
2026-04-20 15:06 12.96629 80.14010 5604 ft 283 kts 271°
2026-04-20 15:06 12.96406 80.12021 6314 ft 289 kts 250°
2026-04-20 15:06 12.95565 80.10134 7000 ft 294 kts 242°
2026-04-20 15:06 12.94754 80.08191 7676 ft 297 kts 247°
2026-04-20 15:07 12.93969 80.06219 8433 ft 300 kts 245°
2026-04-20 15:07 12.93138 80.04238 9128 ft 305 kts 245°
2026-04-20 15:07 12.92274 80.02240 9844 ft 309 kts 244°
2026-04-20 15:07 12.91377 80.00200 10393 ft 319 kts 244°
2026-04-20 15:08 12.90434 79.98078 10742 ft 336 kts 243°
2026-04-20 15:08 12.89505 79.95816 11081 ft 352 kts 251°
2026-04-20 15:08 12.89279 79.93314 11618 ft 355 kts 278°
2026-04-20 15:08 12.90069 79.90936 12400 ft 354 kts 298°
2026-04-20 15:09 12.91215 79.88718 13069 ft 360 kts 296°
2026-04-20 15:09 12.92298 79.86386 13763 ft 364 kts 294°
2026-04-20 15:09 12.93329 79.83998 14441 ft 368 kts 292°
2026-04-20 15:09 12.94327 79.81584 15142 ft 370 kts 291°
2026-04-20 15:10 12.95316 79.79136 15839 ft 373 kts 291°
2026-04-20 15:10 12.96301 79.76660 16486 ft 376 kts 291°
2026-04-20 15:10 12.97286 79.74160 17141 ft 379 kts 290°
2026-04-20 15:10 12.98272 79.71646 17803 ft 381 kts 290°
2026-04-20 15:11 12.99262 79.69116 18408 ft 383 kts 290°
2026-04-20 15:11 13.00261 79.66567 18944 ft 385 kts 290°
2026-04-20 15:11 13.01248 79.64044 19487 ft 387 kts 290°
2026-04-20 15:11 13.02250 79.61482 20024 ft 388 kts 290°
2026-04-20 15:12 13.03259 79.58901 20569 ft 390 kts 290°
2026-04-20 15:12 13.04271 79.56316 21075 ft 392 kts 289°
2026-04-20 15:12 13.05287 79.53717 21590 ft 394 kts 289°
2026-04-20 15:12 13.06306 79.51108 22080 ft 396 kts 289°
2026-04-20 15:13 13.07332 79.48481 22583 ft 397 kts 289°
2026-04-20 15:13 13.08365 79.45839 23058 ft 399 kts 289°
2026-04-20 15:13 13.09400 79.43186 23488 ft 402 kts 289°
2026-04-20 15:13 13.10441 79.40520 23863 ft 404 kts 289°
2026-04-20 15:14 13.11488 79.37836 24239 ft 406 kts 289°
2026-04-20 15:14 13.12543 79.35132 24615 ft 409 kts 289°
2026-04-20 15:14 13.13603 79.32413 24980 ft 411 kts 288°
2026-04-20 15:14 13.14668 79.29681 25347 ft 414 kts 288°
2026-04-20 15:15 13.15739 79.26935 25728 ft 416 kts 288°
2026-04-20 15:15 13.16813 79.24176 26117 ft 417 kts 288°
2026-04-20 15:15 13.17894 79.21400 26489 ft 419 kts 288°
2026-04-20 15:15 13.18980 79.18610 26826 ft 422 kts 288°
2026-04-20 15:16 13.20077 79.15786 26858 ft 431 kts 288°
2026-04-20 15:16 13.21182 79.12941 26863 ft 438 kts 288°
2026-04-20 15:16 13.22330 79.09988 26874 ft 440 kts 288°
2026-04-20 15:16 13.23449 79.07114 26886 ft 440 kts 288°
2026-04-20 15:17 13.24584 79.04196 26888 ft 440 kts 288°
2026-04-20 15:17 13.25719 79.01275 26892 ft 440 kts 288°
2026-04-20 15:17 13.26852 78.98358 26894 ft 440 kts 288°
2026-04-20 15:17 13.27987 78.95436 26898 ft 440 kts 288°
2026-04-20 15:18 13.28866 78.92457 26898 ft 433 kts 273°
2026-04-20 15:18 13.28764 78.89394 26901 ft 429 kts 257°
2026-04-20 15:18 13.28062 78.86422 26903 ft 431 kts 251°
2026-04-20 15:18 13.27279 78.83443 26902 ft 433 kts 255°
2026-04-20 15:19 13.26911 78.80411 26898 ft 436 kts 267°
2026-04-20 15:19 13.27270 78.77238 26941 ft 437 kts 275°
2026-04-20 15:19 13.27508 78.74150 26921 ft 433 kts 268°
2026-04-20 15:19 13.27532 78.71058 26921 ft 434 kts 267°
2026-04-20 15:20 13.27500 78.67959 26927 ft 434 kts 265°
2026-04-20 15:20 13.27377 78.64871 26930 ft 433 kts 264°
2026-04-20 15:20 13.27204 78.61779 26930 ft 434 kts 263°
2026-04-20 15:20 13.27010 78.58721 26882 ft 423 kts 263°
2026-04-20 15:21 13.26809 78.55789 26622 ft 413 kts 263°
2026-04-20 15:21 13.26599 78.52861 26116 ft 409 kts 263°
2026-04-20 15:21 13.26386 78.49957 25616 ft 406 kts 263°
2026-04-20 15:21 13.26182 78.47074 25107 ft 404 kts 264°
2026-04-20 15:22 13.26214 78.44190 24507 ft 405 kts 274°
2026-04-20 15:22 13.26760 78.41363 24091 ft 401 kts 279°
2026-04-20 15:22 13.27304 78.38564 23621 ft 398 kts 278°
2026-04-20 15:22 13.27801 78.35775 23050 ft 396 kts 277°
2026-04-20 15:23 13.28273 78.32997 22531 ft 393 kts 277°
2026-04-20 15:23 13.28725 78.30249 22049 ft 389 kts 276°
2026-04-20 15:23 13.29164 78.27521 21580 ft 385 kts 276°
2026-04-20 15:23 13.29596 78.24809 21112 ft 382 kts 277°
2026-04-20 15:24 13.30022 78.22129 20658 ft 379 kts 277°
2026-04-20 15:24 13.30335 78.19461 20176 ft 377 kts 268°
2026-04-20 15:24 13.30208 78.16767 19651 ft 378 kts 264°
2026-04-20 15:25 13.30475 78.08436 18317 ft 374 kts 270°
2026-04-20 15:25 13.30544 78.05764 17799 ft 375 kts 269°
2026-04-20 15:25 13.30598 78.03082 17318 ft 374 kts 269°
2026-04-20 15:26 13.30642 78.00418 16865 ft 373 kts 269°
2026-04-20 15:26 13.30680 77.97760 16411 ft 372 kts 269°
2026-04-20 15:26 13.30718 77.95128 16186 ft 363 kts 269°
2026-04-20 15:26 13.30752 77.92597 15970 ft 354 kts 269°
2026-04-20 15:27 13.30785 77.90111 15778 ft 344 kts 269°
2026-04-20 15:27 13.30818 77.87687 15599 ft 334 kts 269°
2026-04-20 15:27 13.30848 77.85344 15429 ft 323 kts 269°
2026-04-20 15:27 13.30878 77.83072 15252 ft 314 kts 269°
2026-04-20 15:28 13.30897 77.81600 15140 ft 307 kts 269°
2026-04-20 15:28 13.30934 77.78732 14904 ft 295 kts 269°
2026-04-20 15:28 13.30953 77.76622 14495 ft 296 kts 269°
2026-04-20 15:28 13.30969 77.74518 14154 ft 294 kts 269°
2026-04-20 15:29 13.30986 77.72422 13794 ft 293 kts 269°
2026-04-20 15:29 13.31004 77.70336 13375 ft 293 kts 269°
2026-04-20 15:29 13.31023 77.68244 12980 ft 291 kts 269°
2026-04-20 15:29 13.31040 77.66168 12576 ft 291 kts 269°
2026-04-20 15:30 13.31056 77.64096 12201 ft 290 kts 268°
2026-04-20 15:30 13.31071 77.62036 11843 ft 288 kts 268°
2026-04-20 15:30 13.31086 77.59988 11481 ft 286 kts 268°
2026-04-20 15:30 13.31101 77.57944 11116 ft 285 kts 268°
2026-04-20 15:31 13.31116 77.55916 10754 ft 284 kts 268°
2026-04-20 15:31 13.31126 77.54573 10516 ft 283 kts 268°
2026-04-20 15:31 13.31141 77.52554 10192 ft 281 kts 267°
2026-04-20 15:31 13.31156 77.50574 10025 ft 272 kts 267°
2026-04-20 15:32 13.31126 77.48056 9768 ft 261 kts 256°
2026-04-20 15:32 13.30726 77.46887 9504 ft 257 kts 233°
2026-04-20 15:32 13.29437 77.45681 9087 ft 251 kts 200°
2026-04-20 15:32 13.27760 77.45297 8719 ft 247 kts 179°
2026-04-20 15:33 13.26051 77.45229 8429 ft 243 kts 182°
2026-04-20 15:33 13.24468 77.44877 8407 ft 221 kts 190°
2026-04-20 15:33 13.23029 77.44863 8178 ft 201 kts 160°
2026-04-20 15:33 13.21851 77.45563 7667 ft 201 kts 130°
2026-04-20 15:34 13.21179 77.46819 7179 ft 200 kts 99°
2026-04-20 15:34 13.21140 77.48247 6701 ft 202 kts 85°
2026-04-20 15:34 13.21170 77.49694 6197 ft 203 kts 92°
2026-04-20 15:34 13.21084 77.51103 6034 ft 194 kts 92°
2026-04-20 15:35 13.21625 77.52270 5540 ft 198 kts
2026-04-20 15:35 13.22536 77.51172 3362 ft 248 kts 304°
2026-04-20 15:35 13.23321 77.49977 4205 ft 192 kts 300°
2026-04-20 15:35 13.24058 77.48781 4155 ft 205 kts 299°
2026-04-20 15:36 13.24827 77.47503 4202 ft 214 kts 299°
2026-04-20 15:36 13.25616 77.46177 4281 ft 219 kts 299°
2026-04-20 15:36 13.26136 77.44750 4379 ft 213 kts 265°
2026-04-20 15:36 13.25598 77.43413 4460 ft 203 kts 216°
2026-04-20 15:37 13.24352 77.42909 4549 ft 194 kts 176°
2026-04-20 15:37 13.23047 77.43112 4644 ft 188 kts 155°
2026-04-20 15:37 13.21937 77.43770 4707 ft 184 kts 131°
2026-04-20 15:37 13.21398 77.44904 4690 ft 180 kts 86°
2026-04-20 15:38 13.22193 77.45460 2940 ft 90 kts 325°